TimeCDT,TemperatureF,Dew PointF,Humidity,Sea Level PressureIn,VisibilityMPH,Wind Direction,Wind SpeedMPH,Gust SpeedMPH,PrecipitationIn,Events,Conditions,WindDirDegrees,DateUTC
12:15 AM,55.4,42.8,63,30.02,10.0,Calm,Calm,-,N/A,,Mostly Cloudy,0,2013-05-08 05:15:00
12:35 AM,51.8,42.8,71,30.02,10.0,Calm,Calm,-,N/A,,Mostly Cloudy,0,2013-05-08 05:35:00
12:55 AM,51.8,41.0,67,30.02,10.0,Calm,Calm,-,N/A,,Overcast,0,2013-05-08 05:55:00
1:15 AM,51.8,42.8,71,30.02,10.0,Calm,Calm,-,N/A,,Mostly Cloudy,0,2013-05-08 06:15:00
1:35 AM,51.8,42.8,71,30.02,10.0,Calm,Calm,-,N/A,,Mostly Cloudy,0,2013-05-08 06:35:00
1:55 AM,51.8,41.0,67,30.02,7.0,Calm,Calm,-,N/A,,Mostly Cloudy,0,2013-05-08 06:55:00
2:15 AM,51.8,41.0,67,30.02,7.0,Calm,Calm,-,N/A,,Scattered Clouds,0,2013-05-08 07:15:00
2:35 AM,50.0,42.8,76,30.01,10.0,Calm,Calm,-,N/A,,Clear,0,2013-05-08 07:35:00
2:55 AM,50.0,42.8,76,30.01,10.0,Calm,Calm,-,N/A,,Clear,0,2013-05-08 07:55:00
3:15 AM,48.2,41.0,76,30.02,10.0,Calm,Calm,-,N/A,,Scattered Clouds,0,2013-05-08 08:15:00
3:35 AM,46.4,41.0,81,30.01,10.0,Calm,Calm,-,N/A,,Scattered Clouds,0,2013-05-08 08:35:00
3:55 AM,44.6,41.0,87,30.01,10.0,Calm,Calm,-,N/A,,Clear,0,2013-05-08 08:55:00
4:15 AM,44.6,41.0,87,30.01,10.0,Calm,Calm,-,N/A,,Clear,0,2013-05-08 09:15:00
4:35 AM,44.6,39.2,81,30.01,10.0,Calm,Calm,-,N/A,,Clear,0,2013-05-08 09:35:00
4:55 AM,42.8,37.4,81,30.01,10.0,Calm,Calm,-,N/A,,Clear,0,2013-05-08 09:55:00
5:15 AM,42.8,39.2,87,30.02,10.0,Calm,Calm,-,N/A,,Clear,0,2013-05-08 10:15:00
5:35 AM,42.8,39.2,87,30.02,10.0,Calm,Calm,-,N/A,,Clear,0,2013-05-08 10:35:00
5:55 AM,42.8,37.4,81,30.02,5.0,Calm,Calm,-,N/A,,Haze,0,2013-05-08 10:55:00
6:15 AM,42.8,37.4,81,30.02,10.0,Calm,Calm,-,N/A,,Clear,0,2013-05-08 11:15:00
6:35 AM,42.8,37.4,81,30.03,10.0,Calm,Calm,-,N/A,,Clear,0,2013-05-08 11:35:00
6:55 AM,44.6,41.0,87,30.03,10.0,Calm,Calm,-,N/A,,Clear,0,2013-05-08 11:55:00
7:15 AM,51.8,42.8,71,30.03,10.0,Calm,Calm,-,N/A,,Clear,0,2013-05-08 12:15:00
7:35 AM,55.4,42.8,63,30.03,10.0,Calm,Calm,-,N/A,,Clear,0,2013-05-08 12:35:00
7:55 AM,55.4,39.2,54,30.03,10.0,Calm,Calm,-,N/A,,Clear,0,2013-05-08 12:55:00
8:15 AM,59.0,39.2,48,30.03,10.0,SSW,3.5,-,N/A,,Clear,210,2013-05-08 13:15:00
8:35 AM,60.8,39.2,45,30.04,10.0,Calm,Calm,-,N/A,,Clear,0,2013-05-08 13:35:00
8:55 AM,62.6,39.2,42,30.04,10.0,Calm,Calm,-,N/A,,Clear,0,2013-05-08 13:55:00
9:15 AM,64.4,37.4,37,30.04,10.0,Calm,Calm,-,N/A,,Clear,0,2013-05-08 14:15:00
9:35 AM,68.0,37.4,33,30.04,10.0,Calm,Calm,-,N/A,,Scattered Clouds,0,2013-05-08 14:35:00
9:55 AM,69.8,37.4,31,30.03,10.0,Calm,Calm,-,N/A,,Scattered Clouds,0,2013-05-08 14:55:00
10:15 AM,71.6,37.4,29,30.03,10.0,Calm,Calm,-,N/A,,Clear,0,2013-05-08 15:15:00
10:35 AM,71.6,35.6,27,30.03,10.0,Calm,Calm,-,N/A,,Clear,0,2013-05-08 15:35:00
10:55 AM,71.6,35.6,27,30.03,10.0,SSE,4.6,-,N/A,,Clear,150,2013-05-08 15:55:00
11:15 AM,73.4,35.6,25,30.03,10.0,Calm,Calm,-,N/A,,Clear,0,2013-05-08 16:15:00
11:35 AM,77.0,33.8,21,30.03,10.0,WSW,9.2,-,N/A,,Mostly Cloudy,250,2013-05-08 16:35:00
11:55 AM,71.6,32.0,23,30.03,10.0,West,4.6,-,N/A,,Mostly Cloudy,260,2013-05-08 16:55:00
12:15 PM,71.6,33.8,25,30.03,10.0,SW,3.5,-,N/A,,Scattered Clouds,230,2013-05-08 17:15:00
12:35 PM,77.0,35.6,22,30.02,10.0,ESE,3.5,-,N/A,,Clear,120,2013-05-08 17:35:00
12:55 PM,77.0,35.6,22,30.02,10.0,SSE,4.6,-,N/A,,Clear,150,2013-05-08 17:55:00
1:15 PM,77.0,33.8,21,30.01,10.0,WSW,5.8,-,N/A,,Clear,240,2013-05-08 18:15:00
1:35 PM,77.0,33.8,21,30.01,10.0,South,5.8,-,N/A,,Scattered Clouds,180,2013-05-08 18:35:00
1:55 PM,77.0,33.8,21,30.01,10.0,Calm,Calm,-,N/A,,Mostly Cloudy,0,2013-05-08 18:55:00
2:15 PM,77.0,33.8,21,30.00,10.0,South,8.1,17.3,N/A,,Scattered Clouds,190,2013-05-08 19:15:00
2:35 PM,77.0,33.8,21,30.00,10.0,SSW,8.1,-,N/A,,Scattered Clouds,200,2013-05-08 19:35:00
2:55 PM,77.0,35.6,22,30.00,10.0,SSW,4.6,-,N/A,,Scattered Clouds,200,2013-05-08 19:55:00
3:15 PM,77.0,35.6,22,30.00,10.0,Calm,Calm,-,N/A,,Mostly Cloudy,0,2013-05-08 20:15:00
3:35 PM,77.0,33.8,21,29.99,10.0,East,4.6,-,N/A,,Mostly Cloudy,100,2013-05-08 20:35:00
3:55 PM,77.0,33.8,21,29.99,10.0,WSW,3.5,-,N/A,,Mostly Cloudy,250,2013-05-08 20:55:00
4:15 PM,77.0,33.8,21,29.98,10.0,West,5.8,-,N/A,,Scattered Clouds,270,2013-05-08 21:15:00
4:35 PM,77.0,32.0,19,29.98,10.0,West,3.5,-,N/A,,Scattered Clouds,270,2013-05-08 21:35:00
4:55 PM,77.0,33.8,21,29.98,10.0,Calm,Calm,-,N/A,,Scattered Clouds,0,2013-05-08 21:55:00
5:15 PM,77.0,33.8,21,29.98,10.0,WSW,3.5,-,N/A,,Clear,250,2013-05-08 22:15:00
5:35 PM,77.0,33.8,21,29.98,10.0,WSW,4.6,-,N/A,,Clear,250,2013-05-08 22:35:00
5:55 PM,73.4,37.4,27,29.99,10.0,NNW,13.8,-,N/A,,Clear,340,2013-05-08 22:55:00
6:15 PM,71.6,44.6,38,29.99,10.0,NW,8.1,12.7,N/A,,Clear,320,2013-05-08 23:15:00
6:35 PM,69.8,42.8,38,30.00,10.0,NW,6.9,-,N/A,,Scattered Clouds,320,2013-05-08 23:35:00
6:55 PM,68.0,42.8,40,30.00,10.0,NNW,10.4,17.3,N/A,,Scattered Clouds,340,2013-05-08 23:55:00
7:15 PM,66.2,41.0,40,30.00,10.0,North,10.4,-,N/A,,Mostly Cloudy,350,2013-05-09 00:15:00
7:35 PM,64.4,39.2,40,30.00,10.0,North,8.1,-,N/A,,Overcast,360,2013-05-09 00:35:00
7:55 PM,64.4,37.4,37,30.00,10.0,North,10.4,-,N/A,,Scattered Clouds,10,2013-05-09 00:55:00
8:15 PM,64.4,35.6,34,30.00,10.0,NNE,9.2,16.1,N/A,,Clear,20,2013-05-09 01:15:00
8:35 PM,64.4,35.6,34,30.01,10.0,NNE,6.9,-,N/A,,Scattered Clouds,30,2013-05-09 01:35:00
8:55 PM,62.6,37.4,39,30.01,10.0,NNE,9.2,-,N/A,,Scattered Clouds,30,2013-05-09 01:55:00
9:15 PM,62.6,37.4,39,30.01,10.0,NNE,9.2,-,N/A,,Scattered Clouds,20,2013-05-09 02:15:00
9:35 PM,62.6,37.4,39,30.02,10.0,North,8.1,-,N/A,,Clear,10,2013-05-09 02:35:00
9:55 PM,62.6,37.4,39,30.01,10.0,NNE,6.9,-,N/A,,Mostly Cloudy,30,2013-05-09 02:55:00
10:15 PM,60.8,37.4,42,30.01,10.0,NNE,6.9,-,N/A,,Mostly Cloudy,20,2013-05-09 03:15:00
10:35 PM,60.8,41.0,48,30.02,10.0,North,10.4,-,N/A,,Overcast,350,2013-05-09 03:35:00
10:55 PM,59.0,39.2,48,30.03,10.0,NNW,5.8,-,N/A,,Overcast,340,2013-05-09 03:55:00
11:15 PM,59.0,41.0,51,30.02,10.0,NNW,8.1,-,N/A,,Overcast,340,2013-05-09 04:15:00
11:55 PM,59.0,41.0,51,30.01,10.0,NNE,5.8,-,N/A,,Mostly Cloudy,20,2013-05-09 04:55:00